#Datum;Uhrzeit;WR;Pac;DaySum;Status;WR;Pac;DaySum;Status;Pdc1;Udc;Temp;WR;Pac;DaySum;Status;Pdc1;Udc;Temp;WR;Pac;DaySum;Status;Pdc1;Udc;Temp;WR;Pac;DaySum;Status;Pdc1;Pdc2;Udc1;Udc2;Temp;WR;Pac;DaySum;Status;Pdc1;Pdc2;Udc1;Udc2;Temp;WR;Pac;DaySum;Status;Pdc1;Udc;Temp;WR;Pac;DaySum;Status;Pdc1;Udc;Temp;WR;Pac;DaySum;Status;Pdc1;Udc;Temp
29.10.20;23:55:00;1;285;18793;0;2;0;6309;0;0;0;0;3;0;3770;0;0;0;0;4;0;4788;0;0;0;0;5;0;0;0;0;0;0;0;0;6;0;8785;0;0;0;0;0;0;7;0;7707;0;0;0;0;8;0;3657;0;0;0;0;9;0;4025;0;0;0;0
29.10.20;23:50:00;1;291;18769;0;2;0;6309;0;0;0;0;3;0;3770;0;0;0;0;4;0;4788;0;0;0;0;5;0;0;0;0;0;0;0;0;6;0;8785;0;0;0;0;0;0;7;0;7707;0;0;0;0;8;0;3657;0;0;0;0;9;0;4025;0;0;0;0
29.10.20;23:45:00;1;347;18745;0;2;0;6309;0;0;0;0;3;0;3770;0;0;0;0;4;0;4788;0;0;0;0;5;0;0;0;0;0;0;0;0;6;0;8785;0;0;0;0;0;0;7;0;7707;0;0;0;0;8;0;3657;0;0;0;0;9;0;4025;0;0;0;0
29.10.20;23:40:00;1;308;18716;0;2;0;6309;0;0;0;0;3;0;3770;0;0;0;0;4;0;4788;0;0;0;0;5;0;0;0;0;0;0;0;0;6;0;8785;0;0;0;0;0;0;7;0;7707;0;0;0;0;8;0;3657;0;0;0;0;9;0;4025;0;0;0;0
29.10.20;23:35:00;1;268;18690;0;2;0;6309;0;0;0;0;3;0;3770;0;0;0;0;4;0;4788;0;0;0;0;5;0;0;0;0;0;0;0;0;6;0;8785;0;0;0;0;0;0;7;0;7707;0;0;0;0;8;0;3657;0;0;0;0;9;0;4025;0;0;0;0
29.10.20;23:30:00;1;270;18668;0;2;0;6309;0;0;0;0;3;0;3770;0;0;0;0;4;0;4788;0;0;0;0;5;0;0;0;0;0;0;0;0;6;0;8785;0;0;0;0;0;0;7;0;7707;0;0;0;0;8;0;3657;0;0;0;0;9;0;4025;0;0;0;0
29.10.20;23:25:00;1;297;18645;0;2;0;6309;0;0;0;0;3;0;3770;0;0;0;0;4;0;4788;0;0;0;0;5;0;0;0;0;0;0;0;0;6;0;8785;0;0;0;0;0;0;7;0;7707;0;0;0;0;8;0;3657;0;0;0;0;9;0;4025;0;0;0;0
29.10.20;23:20:00;1;361;18621;0;2;0;6309;0;0;0;0;3;0;3770;0;0;0;0;4;0;4788;0;0;0;0;5;0;0;0;0;0;0;0;0;6;0;8785;0;0;0;0;0;0;7;0;7707;0;0;0;0;8;0;3657;0;0;0;0;9;0;4025;0;0;0;0
29.10.20;23:15:00;1;331;18591;0;2;0;6309;0;0;0;0;3;0;3770;0;0;0;0;4;0;4788;0;0;0;0;5;0;0;0;0;0;0;0;0;6;0;8785;0;0;0;0;0;0;7;0;7707;0;0;0;0;8;0;3657;0;0;0;0;9;0;4025;0;0;0;0
29.10.20;23:10:00;1;418;18563;0;2;0;6309;0;0;0;0;3;0;3770;0;0;0;0;4;0;4788;0;0;0;0;5;0;0;0;0;0;0;0;0;6;0;8785;0;0;0;0;0;0;7;0;7707;0;0;0;0;8;0;3657;0;0;0;0;9;0;4025;0;0;0;0
29.10.20;23:05:00;1;474;18529;0;2;0;6309;0;0;0;0;3;0;3770;0;0;0;0;4;0;4788;0;0;0;0;5;0;0;0;0;0;0;0;0;6;0;8785;0;0;0;0;0;0;7;0;7707;0;0;0;0;8;0;3657;0;0;0;0;9;0;4025;0;0;0;0
29.10.20;23:00:00;1;488;18489;0;2;0;6309;0;0;0;0;3;0;3770;0;0;0;0;4;0;4788;0;0;0;0;5;0;0;0;0;0;0;0;0;6;0;8785;0;0;0;0;0;0;7;0;7707;0;0;0;0;8;0;3657;0;0;0;0;9;0;4025;0;0;0;0
29.10.20;22:55:00;1;483;18449;0;2;0;6309;0;0;0;0;3;0;3770;0;0;0;0;4;0;4788;0;0;0;0;5;0;0;0;0;0;0;0;0;6;0;8785;2;0;0;0;0;0;7;0;7707;0;0;0;0;8;0;3657;0;0;0;0;9;0;4025;0;0;0;0
29.10.20;22:50:00;1;534;18408;0;2;0;6309;0;0;0;0;3;0;3770;0;0;0;0;4;0;4788;0;0;0;0;5;0;0;0;0;0;0;0;0;6;0;8785;2;0;0;0;0;0;7;0;7707;0;0;0;0;8;0;3657;0;0;0;0;9;0;4025;0;0;0;0
29.10.20;22:45:00;1;448;18366;0;2;0;6309;0;0;0;0;3;0;3770;0;0;0;0;4;0;4788;0;0;0;0;5;0;0;0;0;0;0;0;0;6;0;8785;2;0;0;0;0;0;7;0;7707;0;0;0;0;8;0;3657;0;0;0;0;9;0;4025;0;0;0;0
29.10.20;22:40:00;1;494;18328;0;2;0;6309;0;0;0;0;3;0;3770;0;0;0;0;4;0;4788;0;0;0;0;5;0;0;0;0;0;0;0;0;6;0;8785;2;0;0;0;0;0;7;0;7707;0;0;0;0;8;0;3657;0;0;0;0;9;0;4025;0;0;0;0
29.10.20;22:35:00;1;415;18291;0;2;0;6309;0;0;0;0;3;0;3770;0;0;0;0;4;0;4788;0;0;0;0;5;0;0;0;0;0;0;0;0;6;0;8785;2;0;0;0;0;0;7;0;7707;0;0;0;0;8;0;3657;0;0;0;0;9;0;4025;0;0;0;0
29.10.20;22:30:00;1;434;18256;0;2;0;6309;0;0;0;0;3;0;3770;0;0;0;0;4;0;4788;0;0;0;0;5;0;0;0;0;0;0;0;0;6;0;8785;2;0;0;0;0;0;7;0;7707;0;0;0;0;8;0;3657;0;0;0;0;9;0;4025;0;0;0;0
29.10.20;22:25:00;1;507;18220;0;2;0;6309;0;0;0;0;3;0;3770;0;0;0;0;4;0;4788;0;0;0;0;5;0;0;0;0;0;0;0;0;6;0;8785;2;0;0;0;0;0;7;0;7707;0;0;0;0;8;0;3657;0;0;0;0;9;0;4025;0;0;0;0
29.10.20;22:20:00;1;484;18177;0;2;0;6309;0;0;0;0;3;0;3770;0;0;0;0;4;0;4788;0;0;0;0;5;0;0;0;0;0;0;0;0;6;0;8785;2;0;0;0;0;0;7;0;7707;0;0;0;0;8;0;3657;0;0;0;0;9;0;4025;0;0;0;0
29.10.20;22:15:00;1;449;18138;0;2;0;6309;0;0;0;0;3;0;3770;0;0;0;0;4;0;4788;0;0;0;0;5;0;0;0;0;0;0;0;0;6;0;8785;2;0;0;0;0;0;7;0;7707;0;0;0;0;8;0;3657;0;0;0;0;9;0;4025;0;0;0;0
29.10.20;22:10:00;1;473;18102;0;2;0;6309;0;0;0;0;3;0;3770;0;0;0;0;4;0;4788;0;0;0;0;5;0;0;0;0;0;0;0;0;6;0;8785;2;0;0;0;0;0;7;0;7707;0;0;0;0;8;0;3657;0;0;0;0;9;0;4025;0;0;0;0
29.10.20;22:05:00;1;515;18062;0;2;0;6309;0;0;0;0;3;0;3770;0;0;0;0;4;0;4788;0;0;0;0;5;0;0;0;0;0;0;0;0;6;0;8785;2;0;0;0;0;0;7;0;7707;0;0;0;0;8;0;3657;0;0;0;0;9;0;4025;0;0;0;0
29.10.20;22:00:00;1;527;18020;0;2;0;6309;0;0;0;0;3;0;3770;0;0;0;0;4;0;4788;0;0;0;0;5;0;0;0;0;0;0;0;0;6;0;8785;2;0;0;0;0;0;7;0;7707;0;0;0;0;8;0;3657;0;0;0;0;9;0;4025;0;0;0;0
29.10.20;21:55:00;1;501;17976;0;2;0;6309;0;0;0;0;3;0;3770;0;0;0;0;4;0;4788;0;0;0;0;5;0;0;0;0;0;0;0;0;6;0;8785;2;0;0;0;0;0;7;0;7707;0;0;0;0;8;0;3657;0;0;0;0;9;0;4025;0;0;0;0
29.10.20;21:50:00;1;561;17933;0;2;0;6309;0;0;0;0;3;0;3770;0;0;0;0;4;0;4788;0;0;0;0;5;0;0;0;0;0;0;0;0;6;0;8785;2;0;0;0;0;0;7;0;7707;0;0;0;0;8;0;3657;0;0;0;0;9;0;4025;0;0;0;0
29.10.20;21:45:00;1;525;17886;0;2;0;6309;0;0;0;0;3;0;3770;0;0;0;0;4;0;4788;0;0;0;0;5;0;0;0;0;0;0;0;0;6;0;8785;2;0;0;0;0;0;7;0;7707;0;0;0;0;8;0;3657;0;0;0;0;9;0;4025;0;0;0;0
29.10.20;21:40:00;1;801;17842;0;2;0;6309;0;0;0;0;3;0;3770;0;0;0;0;4;0;4788;0;0;0;0;5;0;0;0;0;0;0;0;0;6;0;8785;2;0;0;0;0;0;7;0;7707;0;0;0;0;8;0;3657;0;0;0;0;9;0;4025;0;0;0;0
29.10.20;21:35:00;1;849;17775;0;2;0;6309;0;0;0;0;3;0;3770;0;0;0;0;4;0;4788;0;0;0;0;5;0;0;0;0;0;0;0;0;6;0;8785;2;0;0;0;0;0;7;0;7707;0;0;0;0;8;0;3657;0;0;0;0;9;0;4025;0;0;0;0
29.10.20;21:30:00;1;847;17704;0;2;0;6309;0;0;0;0;3;0;3770;0;0;0;0;4;0;4788;0;0;0;0;5;0;0;0;0;0;0;0;0;6;0;8785;2;0;0;0;0;0;7;0;7707;0;0;0;0;8;0;3657;0;0;0;0;9;0;4025;0;0;0;0
29.10.20;21:25:00;1;855;17632;0;2;0;6309;0;0;0;0;3;0;3770;0;0;0;0;4;0;4788;0;0;0;0;5;0;0;0;0;0;0;0;0;6;0;8785;2;0;0;0;0;0;7;0;7707;0;0;0;0;8;0;3657;0;0;0;0;9;0;4025;0;0;0;0
29.10.20;21:20:00;1;875;17560;0;2;0;6309;0;0;0;0;3;0;3770;0;0;0;0;4;0;4788;0;0;0;0;5;0;0;0;0;0;0;0;0;6;0;8785;2;0;0;0;0;0;7;0;7707;0;0;0;0;8;0;3657;0;0;0;0;9;0;4025;0;0;0;0
29.10.20;21:15:00;1;865;17488;0;2;0;6309;0;0;0;0;3;0;3770;0;0;0;0;4;0;4788;0;0;0;0;5;0;0;0;0;0;0;0;0;6;0;8785;2;0;0;0;0;0;7;0;7707;0;0;0;0;8;0;3657;0;0;0;0;9;0;4025;0;0;0;0
29.10.20;21:10:00;1;893;17416;0;2;0;6309;0;0;0;0;3;0;3770;0;0;0;0;4;0;4788;0;0;0;0;5;0;0;0;0;0;0;0;0;6;0;8785;2;0;0;0;0;0;7;0;7707;0;0;0;0;8;0;3657;0;0;0;0;9;0;4025;0;0;0;0
29.10.20;21:05:00;1;914;17342;0;2;0;6309;0;0;0;0;3;0;3770;0;0;0;0;4;0;4788;0;0;0;0;5;0;0;0;0;0;0;0;0;6;0;8785;2;0;0;0;0;0;7;0;7707;0;0;0;0;8;0;3657;0;0;0;0;9;0;4025;0;0;0;0
29.10.20;21:00:00;1;915;17265;0;2;0;6309;0;0;0;0;3;0;3770;0;0;0;0;4;0;4788;0;0;0;0;5;0;0;0;0;0;0;0;0;6;0;8785;2;0;0;0;0;0;7;0;7707;0;0;0;0;8;0;3657;0;0;0;0;9;0;4025;0;0;0;0
29.10.20;20:55:00;1;1651;17188;0;2;0;6309;0;0;0;0;3;0;3770;0;0;0;0;4;0;4788;0;0;0;0;5;0;0;0;0;0;0;0;0;6;0;8785;2;0;0;0;0;0;7;0;7707;0;0;0;0;8;0;3657;0;0;0;0;9;0;4025;0;0;0;0
29.10.20;20:50:00;1;1237;17061;0;2;0;6309;0;0;0;0;3;0;3770;0;0;0;0;4;0;4788;0;0;0;0;5;0;0;0;0;0;0;0;0;6;0;8785;2;0;0;0;0;0;7;0;7707;0;0;0;0;8;0;3657;0;0;0;0;9;0;4025;0;0;0;0
29.10.20;20:45:00;1;1053;16950;0;2;0;6309;0;0;0;0;3;0;3770;0;0;0;0;4;0;4788;0;0;0;0;5;0;0;0;0;0;0;0;0;6;0;8785;2;0;0;0;0;0;7;0;7707;0;0;0;0;8;0;3657;0;0;0;0;9;0;4025;0;0;0;0
29.10.20;20:40:00;1;1372;16862;0;2;0;6309;0;0;0;0;3;0;3770;0;0;0;0;4;0;4788;0;0;0;0;5;0;0;0;0;0;0;0;0;6;0;8785;2;0;0;0;0;0;7;0;7707;0;0;0;0;8;0;3657;0;0;0;0;9;0;4025;0;0;0;0
29.10.20;20:35:00;1;1220;16758;0;2;0;6309;0;0;0;0;3;0;3770;0;0;0;0;4;0;4788;0;0;0;0;5;0;0;0;0;0;0;0;0;6;0;8785;2;0;0;0;0;0;7;0;7707;0;0;0;0;8;0;3657;0;0;0;0;9;0;4025;0;0;0;0
29.10.20;20:30:00;1;1242;16655;0;2;0;6309;0;0;0;0;3;0;3770;0;0;0;0;4;0;4788;0;0;0;0;5;0;0;0;0;0;0;0;0;6;0;8785;2;0;0;0;0;0;7;0;7707;0;0;0;0;8;0;3657;0;0;0;0;9;0;4025;0;0;0;0
29.10.20;20:25:00;1;1345;16551;0;2;0;6309;0;0;0;0;3;0;3770;0;0;0;0;4;0;4788;0;0;0;0;5;0;0;0;0;0;0;0;0;6;0;8785;2;0;0;0;0;0;7;0;7707;0;0;0;0;8;0;3657;0;0;0;0;9;0;4025;0;0;0;0
29.10.20;20:20:00;1;1226;16443;0;2;0;6309;0;0;0;0;3;0;3770;0;0;0;0;4;0;4788;0;0;0;0;5;0;0;0;0;0;0;0;0;6;0;8785;2;0;0;0;0;0;7;0;7707;0;0;0;0;8;0;3657;0;0;0;0;9;0;4025;0;0;0;0
29.10.20;20:15:00;1;1267;16341;0;2;0;6309;0;0;0;0;3;0;3770;0;0;0;0;4;0;4788;0;0;0;0;5;0;0;0;0;0;0;0;0;6;0;8785;2;0;0;0;0;0;7;0;7707;0;0;0;0;8;0;3657;0;0;0;0;9;0;4025;0;0;0;0
29.10.20;20:10:00;1;1217;16236;0;2;0;6309;0;0;0;0;3;0;3770;0;0;0;0;4;0;4788;0;0;0;0;5;0;0;0;0;0;0;0;0;6;0;8785;2;0;0;0;0;0;7;0;7707;0;0;0;0;8;0;3657;0;0;0;0;9;0;4025;0;0;0;0
29.10.20;20:05:00;1;2107;16133;0;2;0;6309;0;0;0;0;3;0;3770;0;0;0;0;4;0;4788;0;0;0;0;5;0;0;0;0;0;0;0;0;6;0;8785;2;0;0;0;0;0;7;0;7707;0;0;0;0;8;0;3657;0;0;0;0;9;0;4025;0;0;0;0
29.10.20;20:00:00;1;1598;15960;0;2;0;6309;0;0;0;0;3;0;3770;0;0;0;0;4;0;4788;0;0;0;0;5;0;0;0;0;0;0;0;0;6;0;8785;2;0;0;0;0;0;7;0;7707;0;0;0;0;8;0;3657;0;0;0;0;9;0;4025;0;0;0;0
29.10.20;19:55:00;1;1285;15780;0;2;0;6309;0;0;0;0;3;0;3770;0;0;0;0;4;0;4788;0;0;0;0;5;0;0;0;0;0;0;0;0;6;0;8785;2;0;0;0;0;0;7;0;7707;0;0;0;0;8;0;3657;0;0;0;0;9;0;4025;0;0;0;0
29.10.20;19:50:00;1;1334;15671;0;2;0;6309;0;0;0;0;3;0;3770;0;0;0;0;4;0;4788;0;0;0;0;5;0;0;0;0;0;0;0;0;6;0;8785;2;0;0;0;0;0;7;0;7707;0;0;0;0;8;0;3657;0;0;0;0;9;0;4025;0;0;0;0
29.10.20;19:45:00;1;1263;15559;0;2;0;6309;0;0;0;0;3;0;3770;0;0;0;0;4;0;4788;0;0;0;0;5;0;0;0;0;0;0;0;0;6;0;8785;2;0;0;0;0;0;7;0;7707;0;0;0;0;8;0;3657;0;0;0;0;9;0;4025;0;0;0;0
29.10.20;19:40:00;1;1270;15453;0;2;0;6309;0;0;0;0;3;0;3770;0;0;0;0;4;0;4788;0;0;0;0;5;0;0;0;0;0;0;0;0;6;0;8785;2;0;0;0;0;0;7;0;7707;0;0;0;0;8;0;3657;0;0;0;0;9;0;4025;0;0;0;0
29.10.20;19:35:00;1;1270;15347;0;2;0;6309;0;0;0;0;3;0;3770;0;0;0;0;4;0;4788;0;0;0;0;5;0;0;0;0;0;0;0;0;6;0;8785;2;0;0;0;0;0;7;0;7707;0;0;0;0;8;0;3657;0;0;0;0;9;0;4025;0;0;0;0
29.10.20;19:30:00;1;1266;15240;0;2;0;6309;0;0;0;0;3;0;3770;0;0;0;0;4;0;4788;0;0;0;0;5;0;0;0;0;0;0;0;0;6;0;8785;2;0;0;0;0;0;7;0;7707;0;0;0;0;8;0;3657;0;0;0;0;9;0;4025;0;0;0;0
29.10.20;19:25:00;1;1274;15127;0;2;0;6309;0;0;0;0;3;0;3770;0;0;0;0;4;0;4788;0;0;0;0;5;0;0;0;0;0;0;0;0;6;0;8785;2;0;0;0;0;0;7;0;7707;0;0;0;0;8;0;3657;0;0;0;0;9;0;4025;0;0;0;0
29.10.20;19:20:00;1;1263;15021;0;2;0;6309;0;0;0;0;3;0;3770;0;0;0;0;4;0;4788;0;0;0;0;5;0;0;0;0;0;0;0;0;6;0;8785;2;0;0;0;0;0;7;0;7707;0;0;0;0;8;0;3657;0;0;0;0;9;0;4025;0;0;0;0
29.10.20;19:15:00;1;1201;14917;0;2;0;6309;0;0;0;0;3;0;3770;0;0;0;0;4;0;4788;0;0;0;0;5;0;0;0;0;0;0;0;0;6;0;8785;2;0;0;0;0;0;7;0;7707;0;0;0;0;8;0;3657;0;0;0;0;9;0;4025;0;0;0;0
29.10.20;19:10:00;1;1208;14816;0;2;0;6309;0;0;0;0;3;0;3770;0;0;0;0;4;0;4788;0;0;0;0;5;0;0;0;0;0;0;0;0;6;0;8785;2;0;0;0;0;0;7;0;7707;0;0;0;0;8;0;3657;0;0;0;0;9;0;4025;0;0;0;0
29.10.20;19:05:00;1;1311;14714;0;2;0;6309;0;0;0;0;3;0;3770;0;0;0;0;4;0;4788;0;0;0;0;5;0;0;0;0;0;0;0;0;6;0;8785;2;0;0;0;0;0;7;0;7707;0;0;0;0;8;0;3657;0;0;0;0;9;0;4025;0;0;0;0
29.10.20;19:00:00;1;992;14595;0;2;0;6309;0;0;0;0;3;0;3770;0;0;0;0;4;0;4788;0;0;0;0;5;0;0;0;0;0;0;0;0;6;0;8785;2;0;0;0;0;0;7;0;7707;0;0;0;0;8;0;3657;0;0;0;0;9;0;4025;0;0;0;0
29.10.20;18:55:00;1;895;14501;0;2;0;6309;0;0;0;0;3;0;3770;0;0;0;0;4;0;4788;0;0;0;0;5;0;0;0;0;0;0;0;0;6;0;8785;2;0;0;0;0;0;7;0;7707;0;0;0;0;8;0;3657;0;0;0;0;9;0;4025;0;0;0;0
29.10.20;18:50:00;1;696;14415;0;2;0;6309;0;0;0;0;3;0;3770;0;0;0;0;4;0;4788;0;0;0;0;5;0;0;0;0;0;0;0;0;6;0;8785;2;0;0;0;0;0;7;0;7707;0;0;0;0;8;0;3657;0;0;0;0;9;0;4025;0;0;0;0
29.10.20;18:45:00;1;662;14356;0;2;0;6309;0;0;0;0;3;0;3770;0;0;0;0;4;0;4788;0;0;0;0;5;0;0;0;0;0;0;0;0;6;0;8785;2;0;0;0;0;0;7;0;7707;0;0;0;0;8;0;3657;0;0;0;0;9;0;4025;0;0;0;0
29.10.20;18:40:00;1;680;14301;0;2;0;6309;0;0;0;0;3;0;3770;0;0;0;0;4;0;4788;0;0;0;0;5;0;0;0;0;0;0;0;0;6;0;8785;2;0;0;0;0;0;7;0;7707;0;0;0;0;8;0;3657;0;0;0;0;9;0;4025;0;0;0;0
29.10.20;18:35:00;1;769;14244;0;2;0;6309;0;0;0;0;3;0;3770;0;0;0;0;4;0;4788;0;0;0;0;5;0;0;0;0;0;0;0;0;6;0;8785;2;0;0;0;0;0;7;0;7707;0;0;0;0;8;0;3657;0;0;0;0;9;0;4025;0;0;0;0
29.10.20;18:30:00;1;811;14181;0;2;0;6309;0;0;0;0;3;0;3770;0;0;0;0;4;0;4788;0;0;0;0;5;0;0;0;0;0;0;0;0;6;0;8785;2;0;0;0;0;0;7;0;7707;0;0;0;0;8;0;3657;0;0;0;0;9;0;4025;0;0;0;0
29.10.20;18:25:00;1;771;14113;0;2;0;6309;0;0;0;0;3;0;3770;0;0;0;0;4;0;4788;0;0;0;0;5;0;0;0;0;0;0;0;0;6;0;8785;2;0;0;0;0;0;7;0;7707;0;0;0;0;8;0;3657;0;0;0;0;9;0;4025;0;0;0;0
29.10.20;18:20:00;1;724;14052;0;2;0;6309;0;0;0;0;3;0;3770;0;0;0;0;4;0;4788;0;0;0;0;5;0;0;0;0;0;0;0;0;6;0;8785;2;0;0;0;0;0;7;0;7707;0;0;0;0;8;0;3657;0;0;0;0;9;0;4025;0;0;0;0
29.10.20;18:15:00;1;690;13991;0;2;0;6309;0;0;0;0;3;0;3770;0;0;0;0;4;0;4788;0;0;0;0;5;0;0;0;0;0;0;0;0;6;0;8785;2;0;0;0;0;0;7;0;7707;0;0;0;0;8;0;3657;0;0;0;0;9;0;4025;0;0;0;0
29.10.20;18:10:00;1;715;13933;0;2;0;6309;0;0;0;0;3;0;3770;0;0;0;0;4;0;4788;0;0;0;0;5;0;0;0;0;0;0;0;0;6;0;8785;2;0;0;0;0;0;7;0;7707;0;0;0;0;8;0;3657;0;0;0;0;9;0;4025;0;0;0;0
29.10.20;18:05:00;1;683;13875;0;2;0;6309;0;0;0;0;3;0;3770;0;0;0;0;4;0;4788;0;0;0;0;5;0;0;0;0;0;0;0;0;6;0;8785;2;0;0;0;0;0;7;0;7707;0;0;0;0;8;0;3657;0;0;0;0;9;0;4025;0;0;0;0
29.10.20;18:00:00;1;653;13818;0;2;0;6309;0;0;0;0;3;0;3770;0;0;0;0;4;0;4788;0;0;0;0;5;0;0;0;0;0;0;0;0;6;0;8785;2;0;0;0;0;0;7;0;7707;0;0;0;0;8;0;3657;0;0;0;0;9;0;4025;0;0;0;0
29.10.20;17:55:00;1;852;13763;0;2;0;6309;0;0;0;0;3;0;3770;0;0;0;0;4;0;4788;0;0;0;0;5;0;0;0;0;0;0;0;0;6;0;8785;2;0;0;0;0;0;7;0;7707;0;0;0;0;8;0;3657;0;0;0;0;9;0;4025;0;0;0;0
29.10.20;17:50:00;1;731;13695;0;2;0;6309;0;0;0;0;3;0;3770;0;0;0;0;4;0;4788;0;0;0;0;5;0;0;0;0;0;0;0;0;6;0;8785;2;0;0;0;0;0;7;0;7707;0;0;0;0;8;0;3657;0;0;0;0;9;0;4025;0;0;0;0
29.10.20;17:45:00;1;636;13631;0;2;0;6309;0;0;0;0;3;0;3770;0;0;0;0;4;0;4788;0;0;0;0;5;0;0;0;0;0;0;0;0;6;0;8785;2;0;0;0;0;0;7;0;7707;0;0;0;0;8;0;3657;0;0;0;0;9;0;4025;0;0;0;0
29.10.20;17:40:00;1;622;13578;0;2;0;6309;0;0;0;0;3;0;3770;0;0;0;0;4;0;4788;0;0;0;0;5;0;0;0;0;0;0;0;0;6;0;8785;2;0;0;0;0;0;7;0;7707;0;0;0;0;8;0;3657;0;0;0;0;9;0;4025;0;0;0;0
29.10.20;17:35:00;1;684;13525;0;2;0;6309;0;0;0;0;3;0;3770;0;0;0;0;4;0;4788;0;0;0;0;5;0;0;0;0;0;0;0;0;6;0;8785;2;0;0;0;0;0;7;0;7707;0;0;0;0;8;0;3657;0;0;0;0;9;0;4025;0;0;0;0
29.10.20;17:30:00;1;638;13466;0;2;0;6309;0;0;0;0;3;0;3770;0;0;0;0;4;0;4788;0;0;0;0;5;0;0;0;0;0;0;0;0;6;0;8785;2;0;0;0;0;0;7;0;7707;0;0;0;0;8;0;3657;0;0;0;0;9;0;4025;0;0;0;0
29.10.20;17:25:00;1;656;13413;0;2;0;6309;0;0;0;0;3;0;3770;0;0;0;0;4;0;4788;0;0;0;0;5;0;0;0;0;0;0;0;0;6;0;8785;2;0;0;0;0;0;7;0;7707;0;0;0;0;8;0;3657;0;0;0;0;9;0;4025;0;0;0;0
29.10.20;17:20:00;1;669;13358;0;2;0;6309;0;0;0;0;3;0;3770;0;0;0;0;4;0;4788;0;0;0;0;5;0;0;0;0;0;0;0;0;6;0;8785;2;0;0;0;0;0;7;0;7707;0;0;0;0;8;0;3657;0;0;0;0;9;0;4025;0;0;0;0
29.10.20;17:15:00;1;744;13303;0;2;0;6309;0;0;0;0;3;0;3770;0;0;0;0;4;0;4788;0;0;0;0;5;0;0;0;0;0;0;0;0;6;0;8785;2;0;0;0;0;0;7;0;7707;0;0;0;0;8;0;3657;0;0;0;0;9;0;4025;0;0;0;0
29.10.20;17:10:00;1;1019;13242;0;2;0;6309;0;0;0;0;3;0;3770;0;0;0;0;4;0;4788;0;0;0;0;5;0;0;0;0;0;0;0;0;6;0;8785;2;0;0;0;0;0;7;0;7707;0;0;0;0;8;0;3657;0;0;0;0;9;0;4025;0;0;0;0
29.10.20;17:05:00;1;1030;13156;0;2;0;6309;0;0;200;11;3;0;3770;6;0;292;17;4;0;4788;0;0;25;6;5;0;0;0;0;0;0;0;0;6;0;8785;2;0;0;0;0;0;7;0;7707;0;0;0;0;8;0;3657;0;0;0;0;9;0;4025;0;0;0;0
29.10.20;17:00:00;1;703;13071;0;2;0;6309;6;0;294;15;3;0;3770;6;0;331;18;4;0;4788;2;0;81;17;5;0;0;0;0;0;0;0;0;6;0;8785;1;0;0;0;0;0;7;0;7707;0;0;0;0;8;0;3657;0;0;0;0;9;0;4025;0;0;0;0
29.10.20;16:55:00;1;501;13012;0;2;0;6309;6;0;335;15;3;0;3770;6;3;387;18;4;0;4788;1;0;126;18;5;0;0;0;0;0;0;0;0;6;0;8785;2;10;0;164;404;28;7;0;7707;0;0;144;13;8;0;3657;0;0;185;12;9;0;4025;0;0;238;13
29.10.20;16:50:00;1;1513;12969;0;2;0;6309;6;0;375;16;3;2;3770;6;5;434;18;4;0;4788;1;0;185;18;5;0;0;0;0;0;0;0;0;6;0;8785;23;10;2;309;541;28;7;0;7707;6;0;359;20;8;0;3657;6;0;362;19;9;0;4025;6;0;377;16
29.10.20;16:45:00;1;1869;12843;0;2;0;6309;6;0;407;16;3;1;3769;6;4;478;18;4;0;4788;3;0;208;18;5;0;0;0;0;0;0;0;0;6;45;8785;1;23;30;486;466;29;7;0;7707;6;1;445;21;8;0;3657;6;0;444;19;9;1;4025;6;2;487;16
29.10.20;16:40:00;1;491;12676;0;2;3;6309;4;9;411;16;3;3;3769;6;13;491;18;4;3;4788;3;3;199;19;5;0;0;0;0;0;0;0;0;6;75;8782;4;38;41;467;446;29;7;1;7707;4;4;468;21;8;0;3657;6;1;458;19;9;0;4025;6;4;517;16
29.10.20;16:35:00;1;478;12635;0;2;11;6309;3;21;400;16;3;0;3769;6;0;539;18;4;11;4788;3;11;199;19;5;0;0;0;0;0;0;0;0;6;45;8776;4;21;22;507;525;28;7;8;7707;3;21;429;21;8;0;3657;6;0;494;19;9;1;4025;6;5;521;17
29.10.20;16:30:00;1;1846;12596;0;2;4;6308;6;10;408;17;3;3;3769;3;12;487;19;4;1;4787;3;1;199;19;5;0;0;0;0;0;0;0;0;6;27;8773;1;10;9;489;459;29;7;1;7706;6;6;465;21;8;0;3657;3;1;466;19;9;0;4025;4;4;510;17
29.10.20;16:25:00;1;891;12443;0;2;5;6307;6;11;410;17;3;1;3769;6;7;516;19;4;3;4787;3;3;235;19;5;0;0;0;0;0;0;0;0;6;52;8770;4;24;20;405;376;29;7;4;7706;6;14;447;21;8;0;3657;6;1;470;19;9;1;4025;3;14;471;17
29.10.20;16:20:00;1;1876;12341;0;2;0;6307;6;0;406;17;3;3;3769;6;10;472;19;4;0;4786;3;0;211;19;5;0;0;0;0;0;0;0;0;6;0;8765;8;11;0;432;580;29;7;0;7705;6;4;449;22;8;0;3657;6;0;452;20;9;2;4025;6;3;496;17
29.10.20;16:15:00;1;2550;12165;0;2;0;6307;6;0;400;18;3;2;3768;6;4;490;19;4;0;4786;3;0;211;20;5;0;0;0;0;0;0;0;0;6;18;8765;23;14;17;480;520;29;7;0;7705;6;1;438;22;8;0;3657;6;0;424;20;9;1;4025;6;4;458;18
29.10.20;16:10:00;1;2717;11952;0;2;0;6307;6;0;410;18;3;2;3768;6;5;491;20;4;0;4786;3;0;218;20;5;0;0;0;0;0;0;0;0;6;62;8763;4;29;32;442;412;30;7;0;7705;6;4;436;23;8;0;3657;6;1;451;20;9;3;4024;6;6;473;18
29.10.20;16:05:00;1;3336;11725;0;2;4;6307;6;10;406;19;3;0;3768;6;0;532;20;4;2;4786;3;2;200;20;5;0;0;0;0;0;0;0;0;6;73;8758;4;40;40;442;412;30;7;2;7705;3;8;435;23;8;0;3657;6;1;457;20;9;2;4024;6;3;504;18
29.10.20;16:00:00;1;2412;11449;0;2;11;6306;6;21;401;20;3;1;3768;3;6;514;20;4;10;4786;3;10;199;20;5;0;0;0;0;0;0;0;0;6;85;8752;4;42;41;442;412;30;7;3;7705;6;14;439;23;8;2;3657;6;1;447;21;9;2;4024;6;3;491;19
29.10.20;15:55:00;1;581;11258;0;2;58;6306;6;92;362;20;3;6;3768;6;11;525;20;4;27;4785;3;28;200;21;5;0;0;0;0;0;0;0;0;6;110;8745;4;66;67;442;412;30;7;19;7704;6;39;439;24;8;2;3657;3;6;455;21;9;4;4024;3;13;504;19
29.10.20;15:50:00;1;646;11209;0;2;0;6301;6;0;426;21;3;2;3767;6;6;525;21;4;30;4783;3;31;200;21;5;0;0;0;0;0;0;0;0;6;114;8736;4;53;52;441;412;30;7;31;7703;4;46;438;24;8;2;3657;6;3;459;21;9;0;4024;6;9;506;19
29.10.20;15:45:00;1;564;11154;0;2;154;6301;4;192;383;22;3;70;3767;6;94;531;21;4;97;4781;3;102;210;21;5;0;0;0;0;0;0;0;0;6;222;8726;4;121;115;442;412;30;7;132;7701;6;166;467;25;8;38;3657;6;52;485;22;9;54;4023;6;73;535;20
29.10.20;15:40:00;1;474;11106;0;2;284;6288;4;326;385;23;3;174;3761;4;216;490;22;4;215;4773;5;224;230;21;5;0;0;0;0;0;0;0;0;6;325;8707;4;134;127;442;412;30;7;260;7690;4;310;457;25;8;102;3653;4;140;469;22;9;132;4019;4;166;510;21
29.10.20;15:35:00;1;554;11066;0;2;167;6265;4;203;362;24;3;54;3747;4;70;515;22;4;116;4755;5;121;216;22;5;0;0;0;0;0;0;0;0;6;234;8680;4;115;112;442;412;31;7;156;7668;4;197;454;25;8;41;3645;4;61;465;22;9;58;4008;4;74;508;22
29.10.20;15:30:00;1;552;11020;0;2;241;6251;4;282;379;25;3;134;3742;6;165;458;23;4;160;4745;3;166;208;22;5;0;0;0;0;0;0;0;0;6;381;8661;4;206;210;525;505;30;7;414;7655;4;463;467;26;8;110;3641;6;135;477;22;9;101;4003;6;122;497;23
29.10.20;15:25:00;1;2374;10974;0;2;2431;6228;4;2557;382;27;3;1340;3730;4;1419;423;24;4;1338;4730;5;1393;251;22;5;0;0;0;0;0;0;0;0;6;2670;8608;4;1371;1330;606;579;30;7;3020;7616;4;3178;484;25;8;1468;3631;4;1540;447;22;9;1386;3994;4;1468;457;24
29.10.20;15:20:00;1;2668;10779;0;2;2859;6026;4;3009;390;26;3;1626;3619;4;1712;427;24;4;1231;4619;5;1282;227;22;5;0;0;0;0;0;0;0;0;6;2926;8382;4;1523;1477;608;586;30;7;3760;7366;4;3937;485;24;8;1847;3508;4;1933;473;22;9;1839;3878;4;1940;479;24
29.10.20;15:15:00;1;4556;10555;0;2;2468;5790;4;2590;390;25;3;1399;3484;4;1481;431;23;4;908;4518;5;946;212;22;5;0;0;0;0;0;0;0;0;6;2533;8142;4;1313;1282;608;586;30;7;3236;7054;4;3408;478;24;8;1601;3356;4;1687;484;21;9;1638;3727;4;1735;501;23
29.10.20;15:10:00;1;4532;10176;0;2;2047;5583;4;2156;405;23;3;1149;3367;4;1218;416;23;4;791;4442;5;823;223;22;5;0;0;0;0;0;0;0;0;6;2152;7933;4;1102;1075;615;594;30;7;2981;6784;4;3127;482;24;8;1446;3221;4;1521;494;21;9;1543;3589;4;1637;511;22
29.10.20;15:05:00;1;4565;9797;0;2;1976;5415;4;2080;398;23;3;1022;3272;4;1088;416;23;4;757;4376;5;789;247;22;5;0;0;0;0;0;0;0;0;6;2019;7759;4;1027;1020;612;577;30;7;2570;6538;4;2696;486;23;8;1216;3102;4;1282;482;21;9;1279;3462;4;1365;525;22
29.10.20;15:00:00;1;3686;9417;0;2;2061;5255;4;2178;416;22;3;863;3189;4;932;490;22;4;944;4314;5;983;248;21;5;0;0;0;0;0;0;0;0;6;2414;7594;4;1247;1212;608;593;30;7;2844;6327;4;2983;489;23;8;1367;3002;4;1442;490;21;9;1452;3358;4;1545;529;22
29.10.20;14:55:00;1;2679;9104;0;2;1808;5079;4;1908;392;20;3;828;3116;4;898;534;22;4;959;4235;5;999;255;21;5;0;0;0;0;0;0;0;0;6;2027;7400;4;1046;1023;603;575;30;7;2623;6087;4;2745;480;23;8;1302;2886;4;1374;482;21;9;1411;3236;4;1506;529;20
29.10.20;14:50:00;1;1191;8879;0;2;878;4923;4;939;412;20;3;534;3045;4;592;524;22;4;681;4154;5;709;244;21;5;0;0;0;0;0;0;0;0;6;1067;7231;4;545;546;587;570;30;7;1079;5862;4;1136;480;23;8;513;2774;4;556;476;21;9;557;3114;4;615;531;20
29.10.20;14:45:00;1;547;8796;0;2;773;4848;4;832;391;20;3;450;3000;4;504;515;21;4;561;4096;5;584;245;21;5;0;0;0;0;0;0;0;0;6;861;7146;4;474;452;513;472;30;7;1049;5773;4;1105;468;23;8;513;2731;4;557;486;21;9;569;3068;4;626;548;19
29.10.20;14:40:00;1;1587;8751;0;2;280;4784;4;320;376;20;3;172;2962;4;213;505;21;4;212;4049;5;221;228;21;5;0;0;0;0;0;0;0;0;6;311;7080;4;160;151;442;412;30;7;334;5685;4;370;460;23;8;142;2688;4;181;456;21;9;173;3020;4;209;510;19
29.10.20;14:35:00;1;2494;8614;0;2;159;4761;4;196;369;20;3;87;2948;4;128;500;21;4;108;4032;5;112;212;21;5;0;0;0;0;0;0;0;0;6;211;7055;4;106;100;442;412;30;7;167;5657;4;205;453;23;8;57;2676;4;87;368;21;9;74;3006;4;99;475;19
29.10.20;14:30:00;1;2589;8406;0;2;129;4747;4;169;371;20;3;72;2940;4;112;485;22;4;88;4023;5;91;202;22;5;0;0;0;0;0;0;0;0;6;199;7037;4;88;85;442;412;30;7;120;5643;4;151;421;24;8;29;2671;4;47;420;21;9;8;2999;6;12;553;19
29.10.20;14:25:00;1;2132;8189;0;2;181;4736;4;219;375;21;3;104;2934;4;144;488;22;4;122;4015;3;127;220;22;5;0;0;0;0;0;0;0;0;6;254;7021;4;124;125;442;412;30;7;126;5633;4;168;441;24;8;39;2669;6;64;435;22;9;49;2999;6;71;516;20
29.10.20;14:20:00;1;2408;8008;0;2;226;4722;4;268;369;21;3;137;2926;4;176;500;22;4;173;4006;5;180;223;22;5;0;0;0;0;0;0;0;0;6;298;6999;4;167;160;442;412;30;7;207;5623;4;245;461;24;8;72;2666;4;109;477;22;9;112;2995;4;145;500;21
29.10.20;14:15:00;1;2366;7807;0;2;211;4703;4;253;377;22;3;129;2915;4;169;483;22;4;156;3992;5;162;222;23;5;0;0;0;0;0;0;0;0;6;340;6975;4;184;190;510;504;30;7;174;5606;4;217;436;25;8;56;2660;4;96;463;22;9;90;2986;4;122;478;21
29.10.20;14:10:00;1;1875;7609;0;2;358;4686;4;403;390;22;3;217;2904;4;263;494;23;4;297;3979;5;310;228;23;5;0;0;0;0;0;0;0;0;6;592;6945;4;312;317;566;557;30;7;352;5591;4;395;474;25;8;149;2655;4;189;467;22;9;191;2979;4;225;504;22
29.10.20;14:05:00;1;1106;7455;0;2;311;4656;4;356;379;23;3;194;2886;4;237;492;23;4;260;3954;5;271;231;24;5;0;0;0;0;0;0;0;0;6;531;6896;4;263;271;564;549;31;7;306;5562;4;356;459;25;8;127;2643;4;168;471;22;9;172;2963;4;209;504;22
29.10.20;14:00:00;1;308;7358;0;2;410;4630;4;459;398;24;3;253;2870;4;301;497;24;4;350;3932;5;364;235;24;5;0;0;0;0;0;0;0;0;6;677;6853;4;327;329;576;553;31;7;410;5536;4;453;468;26;8;171;2632;4;216;474;22;9;211;2948;4;251;509;23
29.10.20;13:55:00;1;2425;7308;0;2;551;4595;4;602;397;25;3;349;2848;4;398;497;24;4;486;3902;5;507;238;25;5;0;0;0;0;0;0;0;0;6;871;6790;4;429;425;582;559;31;7;667;5501;4;723;457;26;8;314;2617;4;359;479;22;9;366;2930;4;413;518;23
29.10.20;13:50:00;1;970;7105;0;2;278;4549;4;321;384;25;3;174;2819;4;217;482;24;4;227;3861;5;236;223;25;5;0;0;0;0;0;0;0;0;6;432;6720;4;201;226;502;541;31;7;311;5445;4;351;443;26;8;119;2591;4;168;478;22;9;172;2899;4;210;504;24
29.10.20;13:45:00;1;278;7010;0;2;669;4526;4;731;403;27;3;422;2804;4;474;513;25;4;582;3842;5;606;233;26;5;0;0;0;0;0;0;0;0;6;1043;6685;4;542;531;586;557;31;7;716;5420;4;773;463;27;8;323;2581;4;364;463;22;9;363;2885;4;410;519;24
29.10.20;13:40:00;1;329;6987;0;2;1126;4475;4;1202;389;29;3;767;2772;4;837;508;26;4;1121;3798;5;1167;235;27;5;0;0;0;0;0;0;0;0;6;1582;6598;4;870;831;584;563;31;7;989;5365;4;1053;475;27;8;542;2557;4;590;468;22;9;600;2858;4;657;504;26